Find Starlink 3788

NORAD ID: 52271 Int'l Des: 2022-041 Owner: SPXS Country: US Constellation: starlink operational
LEOCIRCULAR

当前视图

正在加载3D地球...

About Starlink 3788

Starlink 3788 (NORAD 52271) is a starlink constellation satellite (v1.5) launched Apr 21, 2022 by SPXS of US. It operates in LEO, CIRCULAR orbit with a mass of 297.00 kg.

关于 Starlink 3788

正在加载描述...

即将过境

Passes for default location (London). Set your location on the main map for personalized predictions.

高度历史

Loading altitude history...

两行轨道根数

1 52271U 22041L 26193.48614122 -.00000185 00000-0 64791-5 0 9992
2 52271 53.1587 268.6394 0001102 83.7536 276.3581 15.08831883233209
Epoch: Jul 12, 2026 • Age: 10 hours

当前状态

高度 545.3 km
远地点 / 近地点 N/A
速度 7.60 km/s
星下点 52.12°N, 85.95°E
发射日期 Apr 21, 2022
运行时间 4.2 years
类型 internet

技术详情

分类 Payload
质量 297.00 kg
干质量 275.00 kg
总质量 297.00 kg
长度 0.20 m
直径 2.80 m
跨度 9.00 m
形状 Box + pan
制造商 SPXS
平台类型 Starlink
阶段状态 In Orbit
所有者/国家 SPXS/US

Most Searched